nws-alerts: Checking more than four warning/county codes can delay the loading of your pages. You should use a cron job to get the data.
EllijayWeather Station Historical Data
Daily Summary for March 24, 2019 Units:  English    Metric   Both
Daily Weekly Monthly Yearly Custom
  High: Low: Average:
Temperature: 71.2 °F 30.9 °F 52.5 °F
Dew Point: 40.5 °F 27.5 °F 32.5 °F
Humidity: 89% 23% 53%
Wind Speed: 4.0mph 0.0mph 0.1mph
Wind Gust: 6.0mph - -
Wind- - SE
Pressure: 30.34 in 30.15 in -
Precipitation: 0.00 in    
Historical Graphs
 
 
Tabular Data for March 24, 2019
Time Temperature Dew Point Pressure Wind Wind Speed Wind Gust Humidity Rainfall Rate (Hourly) solar
00:04 40.8 °F 28.4 °F 30.31 in Calm     61% 0.00 in meteobridge W/m2
00:09 40.6 °F 28.2 °F 30.31 in Calm     61% 0.00 in meteobridge W/m2
00:14 40.5 °F 28.9 °F 30.31 in Calm     63% 0.00 in meteobridge W/m2
00:19 40.1 °F 29.7 °F 30.31 in Calm     66% 0.00 in meteobridge W/m2
00:24 39.9 °F 29.8 °F 30.31 in Calm     67% 0.00 in meteobridge W/m2
00:29 39.7 °F 29.7 °F 30.31 in Calm     67% 0.00 in meteobridge W/m2
00:34 39.6 °F 29.8 °F 30.31 in Calm     68% 0.00 in meteobridge W/m2
00:39 39.4 °F 29.7 °F 30.31 in Calm     68% 0.00 in meteobridge W/m2
00:44 39.2 °F 29.8 °F 30.31 in Calm     69% 0.00 in meteobridge W/m2
00:49 39.0 °F 30.0 °F 30.30 in Calm     70% 0.00 in meteobridge W/m2
00:54 38.8 °F 29.8 °F 30.30 in Calm     70% 0.00 in meteobridge W/m2
00:59 38.7 °F 29.7 °F 30.30 in Calm     70% 0.00 in meteobridge W/m2
01:04 38.3 °F 29.3 °F 30.30 in Calm     70% 0.00 in meteobridge W/m2
01:09 38.1 °F 28.9 °F 30.30 in Calm     69% 0.00 in meteobridge W/m2
01:14 38.1 °F 28.9 °F 30.30 in Calm     69% 0.00 in meteobridge W/m2
01:19 37.9 °F 28.8 °F 30.30 in Calm     69% 0.00 in meteobridge W/m2
01:24 37.9 °F 28.8 °F 30.30 in Calm     69% 0.00 in meteobridge W/m2
01:29 37.9 °F 29.1 °F 30.30 in Calm     70% 0.00 in meteobridge W/m2
01:34 37.9 °F 29.3 °F 30.30 in Calm     71% 0.00 in meteobridge W/m2
01:39 37.9 °F 29.3 °F 30.30 in Calm     71% 0.00 in meteobridge W/m2
01:44 37.8 °F 29.5 °F 30.30 in Calm     72% 0.00 in meteobridge W/m2
01:49 37.8 °F 29.5 °F 30.30 in Calm     72% 0.00 in meteobridge W/m2
01:54 37.8 °F 29.8 °F 30.30 in Calm     73% 0.00 in meteobridge W/m2
01:59 37.4 °F 29.1 °F 30.30 in Calm     72% 0.00 in meteobridge W/m2
02:04 37.2 °F 29.1 °F 30.30 in Calm     72% 0.00 in meteobridge W/m2
02:09 37.2 °F 29.7 °F 30.30 in Calm     74% 0.00 in meteobridge W/m2
02:14 37.0 °F 29.1 °F 30.30 in Calm     73% 0.00 in meteobridge W/m2
02:19 36.9 °F 29.3 °F 30.30 in Calm     74% 0.00 in meteobridge W/m2
02:24 36.7 °F 29.1 °F 30.30 in Calm     74% 0.00 in meteobridge W/m2
02:29 36.7 °F 29.1 °F 30.30 in Calm     74% 0.00 in meteobridge W/m2
02:34 36.7 °F 29.5 °F 30.30 in Calm     75% 0.00 in meteobridge W/m2
02:39 36.7 °F 29.5 °F 30.30 in Calm     75% 0.00 in meteobridge W/m2
02:44 36.5 °F 29.3 °F 30.31 in Calm     75% 0.00 in meteobridge W/m2
02:49 36.3 °F 29.1 °F 30.30 in Calm     75% 0.00 in meteobridge W/m2
02:54 36.1 °F 28.6 °F 30.30 in Calm     74% 0.00 in meteobridge W/m2
02:59 36.1 °F 28.9 °F 30.30 in Calm     75% 0.00 in meteobridge W/m2
03:04 36.0 °F 28.8 °F 30.30 in Calm     75% 0.00 in meteobridge W/m2
03:09 35.8 °F 28.6 °F 30.30 in Calm     75% 0.00 in meteobridge W/m2
03:14 35.4 °F 28.9 °F 30.30 in Calm     77% 0.00 in meteobridge W/m2
03:19 35.2 °F 29.1 °F 30.30 in Calm     78% 0.00 in meteobridge W/m2
03:24 35.1 °F 28.9 °F 30.30 in Calm     78% 0.00 in meteobridge W/m2
03:29 34.9 °F 28.8 °F 30.30 in Calm     78% 0.00 in meteobridge W/m2
03:34 34.9 °F 28.8 °F 30.30 in Calm     78% 0.00 in meteobridge W/m2
03:39 34.9 °F 28.8 °F 30.29 in Calm     78% 0.00 in meteobridge W/m2
03:44 34.9 °F 28.8 °F 30.29 in Calm     78% 0.00 in meteobridge W/m2
03:49 34.9 °F 28.8 °F 30.29 in Calm     78% 0.00 in meteobridge W/m2
03:54 34.7 °F 28.2 °F 30.29 in Calm     77% 0.00 in meteobridge W/m2
03:59 34.9 °F 28.8 °F 30.29 in Calm     78% 0.00 in meteobridge W/m2
04:04 34.7 °F 28.6 °F 30.29 in Calm     78% 0.00 in meteobridge W/m2
04:09 34.7 °F 28.6 °F 30.30 in Calm     78% 0.00 in meteobridge W/m2
04:14 34.5 °F 28.8 °F 30.29 in Calm     79% 0.00 in meteobridge W/m2
04:19 34.5 °F 28.8 °F 30.29 in Calm     79% 0.00 in meteobridge W/m2
04:24 34.3 °F 28.6 °F 30.29 in Calm     79% 0.00 in meteobridge W/m2
04:29 34.2 °F 28.4 °F 30.29 in Calm     79% 0.00 in meteobridge W/m2
04:34 34.2 °F 28.6 °F 30.29 in Calm     80% 0.00 in meteobridge W/m2
04:39 34.0 °F 28.4 °F 30.29 in Calm     80% 0.00 in meteobridge W/m2
04:44 34.0 °F 28.4 °F 30.29 in Calm     80% 0.00 in meteobridge W/m2
04:49 33.8 °F 28.6 °F 30.29 in Calm     81% 0.00 in meteobridge W/m2
04:54 33.8 °F 28.6 °F 30.29 in Calm     81% 0.00 in meteobridge W/m2
04:59 33.6 °F 28.4 °F 30.29 in Calm     81% 0.00 in meteobridge W/m2
05:04 33.6 °F 28.4 °F 30.29 in Calm     81% 0.00 in meteobridge W/m2
05:09 33.6 °F 28.4 °F 30.29 in Calm     81% 0.00 in meteobridge W/m2
05:14 33.6 °F 28.8 °F 30.29 in Calm     82% 0.00 in meteobridge W/m2
05:19 33.4 °F 28.2 °F 30.30 in Calm     81% 0.00 in meteobridge W/m2
05:24 33.4 °F 28.2 °F 30.30 in Calm     81% 0.00 in meteobridge W/m2
05:29 33.4 °F 28.6 °F 30.30 in Calm     82% 0.00 in meteobridge W/m2
05:34 33.4 °F 28.6 °F 30.31 in Calm     82% 0.00 in meteobridge W/m2
05:39 33.3 °F 28.6 °F 30.30 in Calm     83% 0.00 in meteobridge W/m2
05:44 33.3 °F 28.6 °F 30.30 in Calm     83% 0.00 in meteobridge W/m2
05:49 33.1 °F 28.4 °F 30.29 in Calm     83% 0.00 in meteobridge W/m2
05:54 32.9 °F 28.6 °F 30.29 in Calm     84% 0.00 in meteobridge W/m2
05:59 32.7 °F 28.4 °F 30.29 in Calm     84% 0.00 in meteobridge W/m2
06:04 32.5 °F 28.2 °F 30.29 in Calm     84% 0.00 in meteobridge W/m2
06:09 32.4 °F 28.0 °F 30.30 in Calm     84% 0.00 in meteobridge W/m2
06:14 32.4 °F 28.0 °F 30.30 in Calm     84% 0.00 in meteobridge W/m2
06:19 32.4 °F 28.0 °F 30.30 in Calm     84% 0.00 in meteobridge W/m2
06:24 32.2 °F 27.9 °F 30.30 in Calm     84% 0.00 in meteobridge W/m2
06:29 32.2 °F 27.9 °F 30.29 in Calm     84% 0.00 in meteobridge W/m2
06:34 32.2 °F 28.2 °F 30.30 in Calm     85% 0.00 in meteobridge W/m2
06:39 32.0 °F 28.0 °F 30.30 in Calm     85% 0.00 in meteobridge W/m2
06:44 32.0 °F 28.0 °F 30.30 in Calm     85% 0.00 in meteobridge W/m2
06:49 32.0 °F 28.0 °F 30.30 in Calm     85% 0.00 in meteobridge W/m2
06:54 32.0 °F 28.2 °F 30.31 in Calm     86% 0.00 in meteobridge W/m2
06:59 31.8 °F 28.0 °F 30.31 in Calm     86% 0.00 in meteobridge W/m2
07:04 31.8 °F 27.9 °F 30.32 in Calm     85% 0.00 in meteobridge W/m2
07:09 31.8 °F 27.9 °F 30.32 in Calm     85% 0.00 in meteobridge W/m2
07:14 31.6 °F 27.7 °F 30.32 in Calm     85% 0.00 in meteobridge W/m2
07:19 31.6 °F 27.9 °F 30.32 in Calm     86% 0.00 in meteobridge W/m2
07:24 31.5 °F 27.7 °F 30.32 in Calm     86% 0.00 in meteobridge W/m2
07:29 31.5 °F 27.7 °F 30.33 in Calm     86% 0.00 in meteobridge W/m2
07:34 31.3 °F 27.9 °F 30.32 in Calm     87% 0.00 in meteobridge W/m2
07:39 31.3 °F 27.9 °F 30.32 in Calm     87% 0.00 in meteobridge W/m2
07:44 31.1 °F 27.7 °F 30.32 in Calm     87% 0.00 in meteobridge W/m2
07:49 31.1 °F 27.7 °F 30.32 in Calm     87% 0.00 in meteobridge W/m2
07:54 30.9 °F 27.5 °F 30.32 in Calm     87% 0.00 in meteobridge W/m2
07:59 31.1 °F 28.0 °F 30.33 in Calm     88% 0.00 in meteobridge W/m2
08:04 31.3 °F 28.2 °F 30.33 in Calm     88% 0.00 in meteobridge W/m2
08:09 31.3 °F 28.2 °F 30.33 in Calm     88% 0.00 in meteobridge W/m2
08:14 31.5 °F 28.4 °F 30.33 in Calm     88% 0.00 in meteobridge W/m2
08:19 31.6 °F 28.6 °F 30.33 in Calm     88% 0.00 in meteobridge W/m2
08:24 32.0 °F 28.9 °F 30.33 in Calm     88% 0.00 in meteobridge W/m2
08:29 32.5 °F 29.7 °F 30.33 in Calm     89% 0.00 in meteobridge W/m2
08:34 33.3 °F 30.0 °F 30.34 in Calm     88% 0.00 in meteobridge W/m2
08:39 33.6 °F 30.4 °F 30.34 in Calm     88% 0.00 in meteobridge W/m2
08:44 34.2 °F 30.7 °F 30.34 in Calm     87% 0.00 in meteobridge W/m2
08:49 34.7 °F 31.3 °F 30.33 in Calm     87% 0.00 in meteobridge W/m2
08:54 35.2 °F 31.8 °F 30.33 in Calm     87% 0.00 in meteobridge W/m2
08:59 36.0 °F 32.2 °F 30.33 in Calm     86% 0.00 in meteobridge W/m2
09:04 36.5 °F 32.4 °F 30.33 in Calm     85% 0.00 in meteobridge W/m2
09:09 37.2 °F 33.4 °F 30.33 in Calm     86% 0.00 in meteobridge W/m2
09:14 37.9 °F 33.8 °F 30.33 in Calm     85% 0.00 in meteobridge W/m2
09:19 38.7 °F 34.2 °F 30.34 in Calm     84% 0.00 in meteobridge W/m2
09:24 39.2 °F 34.5 °F 30.34 in Calm     83% 0.00 in meteobridge W/m2
09:29 39.9 °F 35.2 °F 30.34 in Calm     83% 0.00 in meteobridge W/m2
09:34 40.6 °F 36.1 °F 30.33 in Calm     84% 0.00 in meteobridge W/m2
09:39 41.5 °F 37.0 °F 30.33 in Calm     84% 0.00 in meteobridge W/m2
09:44 42.4 °F 37.6 °F 30.33 in Calm     83% 0.00 in meteobridge W/m2
09:49 44.2 °F 39.0 °F 30.33 in Calm     82% 0.00 in meteobridge W/m2
09:54 45.3 °F 39.2 °F 30.33 in Calm     79% 0.00 in meteobridge W/m2
09:59 46.6 °F 40.5 °F 30.33 in Calm     79% 0.00 in meteobridge W/m2
10:04 47.8 °F 39.9 °F 30.33 in Calm     74% 0.00 in meteobridge W/m2
10:09 49.5 °F 39.7 °F 30.33 in Calm     69% 0.00 in meteobridge W/m2
10:14 50.9 °F 38.3 °F 30.33 in Calm     62% 0.00 in meteobridge W/m2
10:19 52.2 °F 39.6 °F 30.33 in Calm     62% 0.00 in meteobridge W/m2
10:24 53.1 °F 38.3 °F 30.33 in Calm     57% 0.00 in meteobridge W/m2
10:29 54.0 °F 37.8 °F 30.34 in Calm   1.0 mph 54% 0.00 in meteobridge W/m2
10:34 55.0 °F 40.5 °F 30.34 in Calm     58% 0.00 in meteobridge W/m2
10:39 56.1 °F 39.2 °F 30.34 in Calm     53% 0.00 in meteobridge W/m2
10:44 57.2 °F 38.7 °F 30.33 in Calm     50% 0.00 in meteobridge W/m2
10:49 58.8 °F 37.0 °F 30.33 in Calm     44% 0.00 in meteobridge W/m2
10:54 60.4 °F 35.4 °F 30.33 in SSE 2.0 mph 4.0 mph 39% 0.00 in meteobridge W/m2
10:59 61.5 °F 35.6 °F 30.33 in SSW 0.9 mph 3.0 mph 38% 0.00 in meteobridge W/m2
11:04 62.4 °F 35.1 °F 30.33 in Calm   1.0 mph 36% 0.00 in meteobridge W/m2
11:09 63.0 °F 35.6 °F 30.33 in Calm     36% 0.00 in meteobridge W/m2
11:14 63.3 °F 35.2 °F 30.33 in Calm     35% 0.00 in meteobridge W/m2
11:19 64.0 °F 34.3 °F 30.33 in SSE 0.9 mph 2.0 mph 33% 0.00 in meteobridge W/m2
11:24 64.2 °F 35.2 °F 30.33 in Calm   4.0 mph 34% 0.00 in meteobridge W/m2
11:29 64.6 °F 34.9 °F 30.33 in SE 0.9 mph 4.0 mph 33% 0.00 in meteobridge W/m2
11:34 64.8 °F 34.2 °F 30.33 in Calm     32% 0.00 in meteobridge W/m2
11:39 64.8 °F 33.4 °F 30.33 in Calm   4.0 mph 31% 0.00 in meteobridge W/m2
11:44 64.9 °F 34.3 °F 30.33 in Calm   4.0 mph 32% 0.00 in meteobridge W/m2
11:49 64.9 °F 33.6 °F 30.33 in SSE 2.0 mph 4.0 mph 31% 0.00 in meteobridge W/m2
11:54 65.1 °F 33.8 °F 30.33 in SSE 0.9 mph 5.0 mph 31% 0.00 in meteobridge W/m2
11:59 65.3 °F 34.7 °F 30.32 in SSE 2.0 mph 2.0 mph 32% 0.00 in meteobridge W/m2
12:04 64.9 °F 33.6 °F 30.32 in Calm   5.0 mph 31% 0.00 in meteobridge W/m2
12:09 65.5 °F 34.0 °F 30.32 in Calm   2.0 mph 31% 0.00 in meteobridge W/m2
12:14 65.7 °F 35.1 °F 30.32 in Calm   1.0 mph 32% 0.00 in meteobridge W/m2
12:19 66.0 °F 35.2 °F 30.32 in Calm   1.0 mph 32% 0.00 in meteobridge W/m2
12:24 66.6 °F 34.2 °F 30.32 in East 2.0 mph 4.0 mph 30% 0.00 in meteobridge W/m2
12:29 66.7 °F 34.3 °F 30.32 in Calm     30% 0.00 in meteobridge W/m2
12:34 66.7 °F 33.4 °F 30.32 in South 0.9 mph 2.0 mph 29% 0.00 in meteobridge W/m2
12:39 66.9 °F 34.5 °F 30.31 in Calm   4.0 mph 30% 0.00 in meteobridge W/m2
12:44 67.3 °F 34.0 °F 30.31 in SSE 0.9 mph 2.0 mph 29% 0.00 in meteobridge W/m2
12:49 67.6 °F 34.2 °F 30.31 in SE 4.0 mph 4.0 mph 29% 0.00 in meteobridge W/m2
12:54 67.8 °F 35.2 °F 30.31 in Calm   1.0 mph 30% 0.00 in meteobridge W/m2
12:59 68.2 °F 34.7 °F 30.31 in East 0.9 mph 1.0 mph 29% 0.00 in meteobridge W/m2
13:04 68.2 °F 32.9 °F 30.30 in SE 0.9 mph 1.0 mph 27% 0.00 in meteobridge W/m2
13:09 68.4 °F 34.0 °F 30.30 in Calm   1.0 mph 28% 0.00 in meteobridge W/m2
13:14 68.5 °F 32.4 °F 30.30 in Calm   4.0 mph 26% 0.00 in meteobridge W/m2
13:19 68.4 °F 32.2 °F 30.29 in Calm   5.0 mph 26% 0.00 in meteobridge W/m2
13:24 68.4 °F 34.0 °F 30.29 in Calm   1.0 mph 28% 0.00 in meteobridge W/m2
13:29 68.5 °F 33.3 °F 30.29 in SSW 0.9 mph 2.0 mph 27% 0.00 in meteobridge W/m2
13:34 68.7 °F 33.4 °F 30.29 in SSW 0.9 mph 1.0 mph 27% 0.00 in meteobridge W/m2
13:39 68.7 °F 33.4 °F 30.29 in Calm   2.0 mph 27% 0.00 in meteobridge W/m2
13:44 68.7 °F 33.4 °F 30.28 in Calm   1.0 mph 27% 0.00 in meteobridge W/m2
13:49 69.3 °F 34.7 °F 30.28 in Calm   2.0 mph 28% 0.00 in meteobridge W/m2
13:54 70.0 °F 31.5 °F 30.28 in Calm   4.0 mph 24% 0.00 in meteobridge W/m2
13:59 70.2 °F 30.6 °F 30.27 in Calm   4.0 mph 23% 0.00 in meteobridge W/m2
14:04 70.3 °F 31.8 °F 30.27 in Calm   6.0 mph 24% 0.00 in meteobridge W/m2
14:09 70.3 °F 31.8 °F 30.27 in Calm   1.0 mph 24% 0.00 in meteobridge W/m2
14:14 70.3 °F 31.8 °F 30.27 in Calm   5.0 mph 24% 0.00 in meteobridge W/m2
14:19 70.2 °F 30.6 °F 30.26 in Calm   2.0 mph 23% 0.00 in meteobridge W/m2
14:24 70.2 °F 32.7 °F 30.26 in Calm   1.0 mph 25% 0.00 in meteobridge W/m2
14:29 70.3 °F 30.7 °F 30.26 in East 0.9 mph 2.0 mph 23% 0.00 in meteobridge W/m2
14:34 70.0 °F 30.6 °F 30.25 in East 4.0 mph 5.0 mph 23% 0.00 in meteobridge W/m2
14:39 70.0 °F 31.5 °F 30.25 in Calm   5.0 mph 24% 0.00 in meteobridge W/m2
14:44 69.6 °F 30.2 °F 30.24 in Calm   3.0 mph 23% 0.00 in meteobridge W/m2
14:49 69.6 °F 31.3 °F 30.24 in Calm   4.0 mph 24% 0.00 in meteobridge W/m2
14:54 69.8 °F 31.5 °F 30.24 in NE 0.9 mph 3.0 mph 24% 0.00 in meteobridge W/m2
14:59 70.3 °F 31.8 °F 30.24 in WNW 0.9 mph 4.0 mph 24% 0.00 in meteobridge W/m2
15:04 70.5 °F 30.9 °F 30.24 in Calm   1.0 mph 23% 0.00 in meteobridge W/m2
15:09 70.9 °F 32.4 °F 30.24 in Calm   2.0 mph 24% 0.00 in meteobridge W/m2
15:14 71.1 °F 31.5 °F 30.23 in Calm   1.0 mph 23% 0.00 in meteobridge W/m2
15:19 70.9 °F 32.4 °F 30.22 in Calm   1.0 mph 24% 0.00 in meteobridge W/m2
15:24 70.9 °F 32.4 °F 30.22 in Calm   5.0 mph 24% 0.00 in meteobridge W/m2
15:29 71.1 °F 33.4 °F 30.22 in Calm   3.0 mph 25% 0.00 in meteobridge W/m2
15:34 71.2 °F 32.5 °F 30.22 in Calm   5.0 mph 24% 0.00 in meteobridge W/m2
15:39 70.9 °F 32.4 °F 30.22 in Calm   2.0 mph 24% 0.00 in meteobridge W/m2
15:44 70.5 °F 32.0 °F 30.22 in East 2.0 mph 4.0 mph 24% 0.00 in meteobridge W/m2
15:49 70.5 °F 33.1 °F 30.21 in Calm   4.0 mph 25% 0.00 in meteobridge W/m2
15:54 70.5 °F 33.1 °F 30.21 in Calm   1.0 mph 25% 0.00 in meteobridge W/m2
15:59 70.7 °F 33.1 °F 30.21 in East 0.9 mph 1.0 mph 25% 0.00 in meteobridge W/m2
16:04 70.5 °F 32.0 °F 30.21 in ESE 2.0 mph 2.0 mph 24% 0.00 in meteobridge W/m2
16:09 70.3 °F 32.9 °F 30.21 in Calm   1.0 mph 25% 0.00 in meteobridge W/m2
16:14 70.2 °F 33.6 °F 30.20 in Calm     26% 0.00 in meteobridge W/m2
16:19 70.0 °F 33.4 °F 30.20 in Calm   1.0 mph 26% 0.00 in meteobridge W/m2
16:24 70.0 °F 33.4 °F 30.20 in Calm   1.0 mph 26% 0.00 in meteobridge W/m2
16:29 69.6 °F 34.2 °F 30.20 in Calm     27% 0.00 in meteobridge W/m2
16:34 69.8 °F 35.2 °F 30.20 in Calm     28% 0.00 in meteobridge W/m2
16:39 70.0 °F 33.4 °F 30.20 in Calm   1.0 mph 26% 0.00 in meteobridge W/m2
16:44 70.0 °F 33.4 °F 30.19 in Calm   1.0 mph 26% 0.00 in meteobridge W/m2
16:49 70.2 °F 33.6 °F 30.19 in Calm   3.0 mph 26% 0.00 in meteobridge W/m2
16:54 70.3 °F 32.9 °F 30.19 in Calm   2.0 mph 25% 0.00 in meteobridge W/m2
16:59 70.3 °F 33.8 °F 30.19 in Calm     26% 0.00 in meteobridge W/m2
17:04 70.5 °F 34.0 °F 30.18 in Calm   1.0 mph 26% 0.00 in meteobridge W/m2
17:09 70.5 °F 34.0 °F 30.18 in Calm   2.0 mph 26% 0.00 in meteobridge W/m2
17:14 70.5 °F 34.0 °F 30.18 in Calm   1.0 mph 26% 0.00 in meteobridge W/m2
17:19 70.5 °F 33.1 °F 30.18 in Calm   3.0 mph 25% 0.00 in meteobridge W/m2
17:24 70.5 °F 34.0 °F 30.18 in NE 0.9 mph 1.0 mph 26% 0.00 in meteobridge W/m2
17:29 70.3 °F 33.8 °F 30.18 in Calm   1.0 mph 26% 0.00 in meteobridge W/m2
17:34 70.2 °F 33.6 °F 30.17 in Calm     26% 0.00 in meteobridge W/m2
17:39 70.2 °F 32.7 °F 30.17 in Calm     25% 0.00 in meteobridge W/m2
17:44 70.2 °F 32.7 °F 30.17 in Calm     25% 0.00 in meteobridge W/m2
17:49 70.2 °F 32.7 °F 30.17 in Calm     25% 0.00 in meteobridge W/m2
17:54 70.3 °F 32.9 °F 30.17 in Calm     25% 0.00 in meteobridge W/m2
17:59 70.3 °F 33.8 °F 30.17 in Calm   1.0 mph 26% 0.00 in meteobridge W/m2
18:04 70.3 °F 33.8 °F 30.17 in Calm   4.0 mph 26% 0.00 in meteobridge W/m2
18:09 70.2 °F 32.7 °F 30.17 in Calm   1.0 mph 25% 0.00 in meteobridge W/m2
18:14 70.2 °F 31.6 °F 30.17 in Calm     24% 0.00 in meteobridge W/m2
18:19 70.0 °F 32.5 °F 30.17 in ESE 2.0 mph 2.0 mph 25% 0.00 in meteobridge W/m2
18:24 69.8 °F 32.4 °F 30.17 in Calm   1.0 mph 25% 0.00 in meteobridge W/m2
18:29 69.6 °F 33.3 °F 30.17 in Calm     26% 0.00 in meteobridge W/m2
18:34 69.4 °F 33.1 °F 30.16 in Calm     26% 0.00 in meteobridge W/m2
18:39 69.1 °F 33.6 °F 30.17 in Calm     27% 0.00 in meteobridge W/m2
18:44 68.7 °F 32.4 °F 30.17 in Calm   1.0 mph 26% 0.00 in meteobridge W/m2
18:49 68.5 °F 32.4 °F 30.17 in Calm     26% 0.00 in meteobridge W/m2
18:54 68.5 °F 31.3 °F 30.16 in Calm     25% 0.00 in meteobridge W/m2
18:59 68.5 °F 32.4 °F 30.16 in ESE 0.9 mph 4.0 mph 26% 0.00 in meteobridge W/m2
19:04 68.4 °F 32.2 °F 30.17 in Calm     26% 0.00 in meteobridge W/m2
19:09 68.2 °F 32.9 °F 30.17 in Calm     27% 0.00 in meteobridge W/m2
19:14 67.8 °F 32.5 °F 30.16 in Calm     27% 0.00 in meteobridge W/m2
19:19 67.5 °F 33.3 °F 30.17 in Calm     28% 0.00 in meteobridge W/m2
19:24 66.9 °F 32.7 °F 30.17 in Calm     28% 0.00 in meteobridge W/m2
19:29 66.6 °F 32.4 °F 30.16 in Calm     28% 0.00 in meteobridge W/m2
19:34 66.4 °F 33.1 °F 30.17 in Calm     29% 0.00 in meteobridge W/m2
19:39 65.8 °F 33.6 °F 30.17 in Calm     30% 0.00 in meteobridge W/m2
19:44 65.7 °F 33.4 °F 30.17 in Calm     30% 0.00 in meteobridge W/m2
19:49 65.5 °F 33.3 °F 30.17 in Calm     30% 0.00 in meteobridge W/m2
19:54 65.1 °F 32.9 °F 30.17 in Calm     30% 0.00 in meteobridge W/m2
19:59 64.8 °F 32.5 °F 30.17 in Calm     30% 0.00 in meteobridge W/m2
20:04 64.4 °F 33.1 °F 30.17 in Calm     31% 0.00 in meteobridge W/m2
20:09 64.0 °F 33.6 °F 30.17 in Calm     32% 0.00 in meteobridge W/m2
20:14 63.5 °F 33.8 °F 30.17 in Calm     33% 0.00 in meteobridge W/m2
20:19 63.1 °F 33.6 °F 30.17 in Calm     33% 0.00 in meteobridge W/m2
20:24 62.8 °F 34.7 °F 30.17 in Calm     35% 0.00 in meteobridge W/m2
20:29 62.2 °F 34.2 °F 30.17 in Calm     35% 0.00 in meteobridge W/m2
20:34 61.9 °F 35.2 °F 30.17 in Calm     37% 0.00 in meteobridge W/m2
20:39 61.5 °F 34.3 °F 30.17 in Calm     36% 0.00 in meteobridge W/m2
20:44 61.2 °F 34.0 °F 30.17 in Calm     36% 0.00 in meteobridge W/m2
20:49 61.0 °F 34.5 °F 30.17 in Calm     37% 0.00 in meteobridge W/m2
20:54 60.6 °F 35.6 °F 30.17 in Calm     39% 0.00 in meteobridge W/m2
20:59 60.4 °F 37.8 °F 30.17 in Calm     43% 0.00 in meteobridge W/m2
21:04 60.3 °F 36.5 °F 30.17 in Calm     41% 0.00 in meteobridge W/m2
21:09 59.9 °F 35.6 °F 30.17 in Calm     40% 0.00 in meteobridge W/m2
21:14 59.7 °F 36.0 °F 30.17 in Calm     41% 0.00 in meteobridge W/m2
21:19 59.5 °F 36.5 °F 30.17 in Calm     42% 0.00 in meteobridge W/m2
21:24 59.4 °F 36.3 °F 30.17 in Calm     42% 0.00 in meteobridge W/m2
21:29 59.2 °F 36.7 °F 30.17 in Calm     43% 0.00 in meteobridge W/m2
21:34 58.8 °F 37.0 °F 30.17 in Calm     44% 0.00 in meteobridge W/m2
21:39 58.6 °F 36.9 °F 30.17 in Calm     44% 0.00 in meteobridge W/m2
21:44 58.6 °F 36.9 °F 30.18 in Calm     44% 0.00 in meteobridge W/m2
21:49 58.5 °F 37.8 °F 30.18 in Calm     46% 0.00 in meteobridge W/m2
21:54 58.3 °F 37.0 °F 30.18 in Calm     45% 0.00 in meteobridge W/m2
21:59 58.3 °F 37.6 °F 30.18 in Calm     46% 0.00 in meteobridge W/m2
22:04 57.9 °F 38.3 °F 30.18 in Calm     48% 0.00 in meteobridge W/m2
22:09 57.7 °F 37.6 °F 30.18 in Calm     47% 0.00 in meteobridge W/m2
22:14 57.7 °F 37.6 °F 30.18 in Calm     47% 0.00 in meteobridge W/m2
22:19 57.6 °F 37.4 °F 30.18 in Calm     47% 0.00 in meteobridge W/m2
22:24 57.6 °F 37.4 °F 30.18 in Calm     47% 0.00 in meteobridge W/m2
22:29 57.4 °F 37.9 °F 30.18 in Calm     48% 0.00 in meteobridge W/m2
22:34 57.4 °F 38.3 °F 30.18 in Calm     49% 0.00 in meteobridge W/m2
22:39 57.2 °F 38.3 °F 30.18 in Calm     49% 0.00 in meteobridge W/m2
22:44 57.0 °F 38.1 °F 30.18 in Calm     49% 0.00 in meteobridge W/m2
22:49 57.0 °F 38.5 °F 30.17 in Calm     50% 0.00 in meteobridge W/m2
22:54 56.8 °F 38.8 °F 30.17 in Calm     51% 0.00 in meteobridge W/m2
22:59 56.8 °F 38.8 °F 30.17 in Calm     51% 0.00 in meteobridge W/m2
23:04 56.7 °F 38.7 °F 30.16 in Calm     51% 0.00 in meteobridge W/m2
23:09 56.5 °F 39.0 °F 30.16 in Calm     52% 0.00 in meteobridge W/m2
23:14 56.5 °F 39.6 °F 30.16 in Calm     53% 0.00 in meteobridge W/m2
23:19 56.5 °F 39.0 °F 30.16 in Calm     52% 0.00 in meteobridge W/m2
23:24 56.3 °F 38.5 °F 30.16 in Calm     51% 0.00 in meteobridge W/m2
23:29 56.1 °F 38.3 °F 30.16 in Calm     51% 0.00 in meteobridge W/m2
23:34 55.9 °F 38.5 °F 30.16 in Calm     52% 0.00 in meteobridge W/m2
23:39 55.9 °F 38.5 °F 30.16 in Calm     52% 0.00 in meteobridge W/m2
23:44 55.9 °F 38.5 °F 30.16 in Calm     52% 0.00 in meteobridge W/m2
23:49 55.8 °F 38.8 °F 30.16 in Calm     53% 0.00 in meteobridge W/m2
23:54 55.6 °F 38.7 °F 30.16 in Calm     53% 0.00 in meteobridge W/m2
23:59 55.6 °F 39.2 °F 30.15 in Calm     54% 0.00 in meteobridge W/m2
EllijayWeather
Compliments of Weather Underground - 2.5 mb